Regional Weather Roundup
Issued by NWS Newport/Morehead, NC

Current Version | Previous Version | Text Only | Print | Product List | Glossary On
Versions: 1 2 3 4 5 6 7 8 9 10 11 12 13 14 15 16 17 18 19 20 21 22 23 24 25 26 27 28 29 30 31 32 33 34 35 36 37 38 39 40 41 42 43 44 45 46 47 48 49 50
000
ASUS42 KMHX 312313
RWRMHX
WEATHER ROUNDUP FOR EASTERN NORTH CAROLINA
NATIONAL WEATHER SERVICE NEWPORT/MOREHEAD CITY NC
700 PM EDT FRI JUL 31 2015

NOTE: "FAIR" INDICATES FEW OR NO CLOUDS BELOW 12,000 FEET
WITH NO SIGNIFICANT WEATHER AND/OR OBSTRUCTIONS TO VISIBILITY

NCZ015>017-031-032-045>047-102-103-010000-
NORTH COAST

CITY           SKY/WX    TMP DP  RH WIND       PRES   REMARKS
EDENTON          N/A     83  67  57 E8        29.89R
ELIZABETH CITY SUNNY     83  67  58 E8        29.89R
KITTY HAWK     CLEAR     86  64  48 CALM      29.88S
MANTEO         SUNNY     83  65  55 E7        29.90R

$$

NCZ045>047-081-094-103-104-010000-
CENTRAL COAST

CITY           SKY/WX    TMP DP  RH WIND       PRES   REMARKS
FRISCO         PTSUNNY   84  73  69 VRB5      29.90R
SWANQUARTER      N/A     86 N/A N/A E2G8      29.85S

$$

NCZ095-097-098-100-101-010000-
SOUTHERN COAST

CITY           SKY/WX    TMP DP  RH WIND       PRES   REMARKS
BEAUFORT       HVY RAIN  74  73  97 N14G24    29.91R VSB 1/2
CEDAR ISLAND     N/A     84 N/A N/A E12G17    29.94S
JACKSONVILLE   MOSUNNY   85  77  77 S10       29.87R
PINEY ISLAND   MOCLDY   N/A N/A N/A MISG      29.89S
WILMINGTON     TSTM      76  73  91 SW9       29.92R


$$

NCZ011>013-027>030-043-044-078>080-089-090>093-098-010000-
COASTAL PLAIN

CITY           SKY/WX    TMP DP  RH WIND       PRES   REMARKS
AHOSKIE        SUNNY     85  64  50 CALM      29.89R
CLINTON        SUNNY     88  72  57 CALM      29.89R
ELIZABETHTOWN  CLOUDY    91  71  51 SE3       29.88R
GOLDSBORO      MOSUNNY   91  66  42 W2        29.86R
GREENVILLE     PTSUNNY   90  72  55 CALM      29.90R
HAVELOCK       MOSUNNY   87  75  67 E8        29.90R THUNDER
KENANSVILLE    MOSUNNY  N/A N/A N/A CALM      29.90R
KINSTON        MOSUNNY   90  68  48 CALM      29.89R
NEW BERN       SUNNY     88  73  61 SE8       29.89R
RICHLANDS      PTSUNNY   90  72  55 E5        29.88R
ROCKY MOUNT    SUNNY     91  64  40 NW8       29.89R
WASHINGTON     SUNNY     85  70  60 E5        29.89R
WHITEVILLE     RAIN      80  75  85 S5        29.89R

$$

AMZ130-135-150-152-154-156-158-170-250-252-270-ANZ085-086-088-633-658-670-010000-
MARINE OBSERVATIONS

STATION/POSITION TIME  TEMP    WIND        PRES    WAVE   SWELL
                       AIR SEA DIR/SP/G            HT/PER HT/PER
                 (UTC) (F)     (DEG/KT/KT) (MB)    (FT/S) (FT/S)
CHESAPEAKE LIGHT 2300   81     170/  5/  5 1012.5
64 E VA BEACH    2250   82 82  360/  6/  8 1011.0    3/ 9   3/ 9
DUCK             2200   82 80   40/  8/  9 1011.2
2 E DUCK         2211      80                N/A     3/ 4   2/11
OREGON INLET     2200   83 85  360/  8/ 12 1011.9
13E OREGON INLT  2300      82                N/A     4/ 8   2/11
HATTERAS CG      2200   82 84   20/  8/ 10 1011.9
DIAMOND BUOY     2250   81 86  360/  4/  6 1012.6    4/ 9   3/ 9
CAPE LOOKOUT     2300   79      80/  8/  9 1012.4
BEAUFORT LAB     2200   84 85  210/ 11/ 13 1011.1
30 SE NEW RVR IN NOT AVBL
27 SE WRIGHTSVLE 2200   80 84  210/ 10/ 12   N/A
5 SE WRIGHTSVLE  2208   83 83  210/ 14/ 17 1011.6
225 S CAPE HAT   2250   81 81  250/ 17/ 21 1015.1    8/ 7
41 SE CHARLESTON 2250   83 84  200/ 17/ 19 1011.9    3/ 8   2/ 8

$$



USA.gov is the U.S. government's official web portal to all federal, state and local government web resources and services.